Miscellaneous Local Product
Issued by NWS North Platte, NE

Home | Current Version | Previous Version | Text Only | Print | Product List | Glossary On
Versions: 1 2 3 4 5 6 7 8 9 10 11 12 13 14 15 16 17 18 19 20 21 22 23 24 25 26 27 28 29 30 31 32 33 34 35 36 37 38 39 40 41 42 43 44 45 46 47 48 49 50
000
AXUS43 KLBF 310710
MISLBF


WESTERN AND NORTH CENTRAL NEBRASKA HOURLY WEATHER ROUNDUP
NATIONAL WEATHER SERVICE NORTH PLATTE NE
200 AM CDT TUE MAR 31 2015

***STATIONS NOT REPORTING VARIABLES SUCH AS SKY/WEATHER OR
PRESSURE ARE PROVIDED BY THE NEBRASKA DEPARTMENT OF
ROADS...RAWS...AND APRS NETWORKS...AND ARE NOT UNDER
NATIONAL WEATHER SERVICE QUALITY CONTROL***

...OBSERVATIONS IN AND NEAR THE EASTERN PANHANDLE OF NEBRASKA...

CITY           SKY/WX    TMP DP  RH WIND       PRES   REMARKS
PINE RIDGE     CLEAR     33  26  75 E3        30.04F
CHADRON        CLEAR     37  28  70 SW9       30.05F WCI  30
ALLIANCE       CLEAR     35  25  66 CALM      30.06F
SIDNEY         CLEAR     32  25  75 W7        30.08F WCI  26
WHITECLAY        N/A     33  25  72 E5          N/A  WCI  29
CRESCENT LAKE    N/A     47  24  40 CALM        N/A
BIG SPRINGS      N/A     36  23  59 SW3         N/A
$$

...OBSERVATIONS IN NORTH CENTRAL NEBRASKA...

CITY           SKY/WX    TMP DP  RH WIND       PRES   REMARKS
VALENTINE      CLEAR     35  25  66 W5        30.01F WCI  31
THEDFORD       CLEAR     40  27  59 CALM      30.05R
AINSWORTH      CLEAR     40  27  58 W3        30.01S
O`NEILL        CLEAR     43  29  59 W5        30.00S
ORD            CLEAR     35  24  64 SW6       29.99S WCI  30
BROKEN BOW     CLEAR     38  23  55 CALM      30.02R
BROWNLEE         N/A     49  27  42 CALM        N/A
SPRINGVIEW       N/A     34  25  68 CALM        N/A
BREWSTER         N/A     39  28  63 CALM        N/A
ROSE             N/A     54  31  42 N6          N/A
NEWPORT          N/A     36  30  79 SW5         N/A  WCI  32
SARGENT          N/A     40  31  71 CALM        N/A
COMSTOCK         N/A     50  28  43 CALM        N/A
EWING            N/A     42  30  61 CALM        N/A
$$

...OBSERVATIONS IN SOUTHWEST NEBRASKA AND FAR NORTHEAST COLORADO...

CITY           SKY/WX    TMP DP  RH WIND       PRES   REMARKS
WRAY           FAIR      39  25  56 SW5       30.07S
IMPERIAL         N/A     46  22  38 CALM      30.06R
OGALLALA       CLEAR     35  25  68 W6        30.06R WCI  30
NORTH PLATTE   CLEAR     36  27  69 CALM      30.04S
MCCOOK         CLEAR     47  22  37 CALM      30.02F
LEXINGTON      CLEAR     38  23  55 NW6       30.02F WCI  33
PAXTON           N/A     40  23  50 CALM        N/A
SUTHERLAND       N/A     35  21  56 CALM        N/A
BRADY            N/A     42  27  55 CALM        N/A
GOTHENBURG       N/A     50  26  38 CALM        N/A
CALLAWAY         N/A     44  29  57 N5          N/A
$$

...NORTH PLATTE AREA...

CITY           SKY/WX    TMP DP  RH WIND       PRES   REMARKS
AIRPORT        CLEAR     36  27  69 CALM      30.04S
DOWNTOWN         N/A     44  30  57 CALM        N/A
$$

...SOME WEATHER OBSERVATIONS FROM AROUND THE REGION...

CITY           SKY/WX    TMP DP  RH WIND       PRES   REMARKS
DENVER         PTCLDY    46  25  43 SW8       30.12S
LARAMIE        CLEAR     34  15  46 S7        30.18F WCI  28
CHEYENNE       CLEAR     38  22  52 W9        30.13F WCI  31
SCOTTSBLUFF    CLEAR     42  27  55 N5        30.07S
RAPID CITY     CLEAR     40  28  62 NW6       30.01S
PIERRE         CLEAR     46  27  47 SW6       29.95F
WINNER         FAIR      49  26  41 SW7       29.98F
SIOUX FALLS    CLEAR     43  31  62 SW5       29.94R
OMAHA          CLEAR     49  32  52 N8        29.94R
GRAND ISLAND   CLEAR     42  28  57 W3        30.00S
KANSAS CITY    CLEAR     55  35  47 SW7       29.94S
WICHITA        MOCLDY    54  40  59 S3        29.94F
HAYS           CLEAR     54  25  32 N10       29.99R
LIBERAL        CLEAR     48  28  46 NE7       30.01S
GOODLAND       CLEAR     42  22  44 N3        30.06S
$$



USA.gov is the U.S. government's official web portal to all federal, state and local government web resources and services.